AIQ255 VOHS-VTSP

Flight info

Callsign AIQ255
Flight time N/A
Altitude 39000
Route BBZ7 BBZ L518 GOPNU DCT AMVUR DCT IGREX DCT ANPAN L759 SATVA SATVA1C
Aircraft A20N/M-SDE2E3FGHIRWXY/LB1

Departure

Time 2026-04-24 10:59
Airport Rajiv Gandhi International Airport (VOHS)

Arrival

Time N/A
Airport Phuket International Airport (VTSP)
Time Latitude Longitude Altitude Speed Heading
2026-04-24 10:40 17.23426 78.42652 1980 ft 0 kts 359°
2026-04-24 10:51 17.23425 78.42652 1980 ft 0 kts 359°
2026-04-24 10:51 17.23418 78.42652 1980 ft 2 kts 359°
2026-04-24 10:51 17.23405 78.42652 1981 ft 0 kts 359°
2026-04-24 10:51 17.23391 78.42652 1981 ft 3 kts 359°
2026-04-24 10:52 17.23344 78.42653 1981 ft 4 kts 359°
2026-04-24 10:52 17.23329 78.42658 1980 ft 2 kts 296°
2026-04-24 10:52 17.23327 78.42671 1980 ft 0 kts 270°
2026-04-24 10:53 17.23326 78.42624 1983 ft 11 kts 269°
2026-04-24 10:53 17.23324 78.42537 1980 ft 13 kts 268°
2026-04-24 10:54 17.23322 78.42437 1980 ft 15 kts 270°
2026-04-24 10:54 17.23308 78.42334 1981 ft 14 kts 227°
2026-04-24 10:54 17.23237 78.42285 1983 ft 12 kts 247°
2026-04-24 10:54 17.23175 78.42237 1980 ft 12 kts 185°
2026-04-24 10:55 17.23111 78.42215 1980 ft 10 kts 212°
2026-04-24 10:55 17.23072 78.42160 1980 ft 10 kts 265°
2026-04-24 10:55 17.23069 78.42075 1980 ft 14 kts 268°
2026-04-24 10:55 17.23068 78.41944 1983 ft 22 kts 270°
2026-04-24 10:56 17.23064 78.41770 1979 ft 25 kts 267°
2026-04-24 10:56 17.23064 78.41583 1980 ft 26 kts 268°
2026-04-24 10:56 17.23062 78.41401 1979 ft 16 kts 269°
2026-04-24 10:56 17.22999 78.41338 1983 ft 14 kts 192°
2026-04-24 10:57 17.22907 78.41343 1982 ft 13 kts 160°
2026-04-24 10:57 17.22862 78.41412 1982 ft 12 kts 97°
2026-04-24 10:57 17.22859 78.41460 1981 ft 0 kts 89°
2026-04-24 10:58 17.22859 78.41471 1981 ft 15 kts 89°
2026-04-24 10:58 17.22862 78.41826 1981 ft 82 kts 89°
2026-04-24 10:58 17.22875 78.42646 1979 ft 137 kts 90°
2026-04-24 10:59 17.22900 78.43767 2077 ft 168 kts 90°
2026-04-24 10:59 17.22922 78.44951 2711 ft 162 kts 90°
2026-04-24 10:59 17.22950 78.46174 3143 ft 175 kts 87°
2026-04-24 10:59 17.22974 78.47524 3444 ft 196 kts 86°
2026-04-24 11:00 17.23043 78.49013 3821 ft 212 kts 85°
2026-04-24 11:00 17.23077 78.50072 4052 ft 226 kts 88°
2026-04-24 11:00 17.22794 78.52346 4564 ft 255 kts 112°
2026-04-24 11:00 17.21690 78.53877 5000 ft 274 kts 141°
2026-04-24 11:01 17.20630 78.54654 5482 ft 277 kts 140°
2026-04-24 11:01 17.19427 78.56150 6226 ft 275 kts 115°
2026-04-24 11:01 17.18828 78.58052 6727 ft 277 kts 101°
2026-04-24 11:01 17.18482 78.60043 6918 ft 279 kts 99°
2026-04-24 11:02 17.18127 78.62036 6982 ft 278 kts 101°
2026-04-24 11:02 17.17696 78.64007 6988 ft 278 kts 103°
2026-04-24 11:02 17.17199 78.65964 6984 ft 279 kts 104°
2026-04-24 11:02 17.16662 78.67913 6978 ft 278 kts 105°
2026-04-24 11:03 17.16111 78.69847 6953 ft 278 kts 105°
2026-04-24 11:03 17.15553 78.71792 7177 ft 282 kts 105°
2026-04-24 11:03 17.14989 78.73762 7883 ft 282 kts 105°
2026-04-24 11:03 17.14431 78.75714 8721 ft 282 kts 105°
2026-04-24 11:04 17.13864 78.77700 9427 ft 286 kts 105°
2026-04-24 11:04 17.13297 78.79684 10087 ft 291 kts 105°
2026-04-24 11:04 17.12698 78.81781 10385 ft 312 kts 106°
2026-04-24 11:04 17.12053 78.84036 10597 ft 333 kts 106°
2026-04-24 11:05 17.11377 78.86395 11087 ft 342 kts 106°
2026-04-24 11:05 17.10692 78.88785 11839 ft 344 kts 106°
2026-04-24 11:05 17.10001 78.91194 12516 ft 348 kts 106°
2026-04-24 11:05 17.09303 78.93629 13199 ft 352 kts 107°
2026-04-24 11:06 17.08593 78.96106 13855 ft 357 kts 107°
2026-04-24 11:06 17.07873 78.98618 14362 ft 363 kts 107°
2026-04-24 11:06 17.07150 79.01134 14897 ft 369 kts 107°
2026-04-24 11:06 17.06398 79.03752 15427 ft 375 kts 107°
2026-04-24 11:07 17.04875 79.09051 16474 ft 386 kts 108°
2026-04-24 11:07 17.04098 79.11752 16998 ft 390 kts 108°
2026-04-24 11:07 17.03323 79.14444 17544 ft 394 kts 108°
2026-04-24 11:08 17.02523 79.17218 18095 ft 398 kts 108°
2026-04-24 11:08 17.01719 79.20006 18567 ft 401 kts 108°
2026-04-24 11:08 17.00911 79.22807 19043 ft 405 kts 108°
2026-04-24 11:08 17.00093 79.25641 19496 ft 408 kts 108°
2026-04-24 11:09 16.99270 79.28493 19949 ft 412 kts 108°
2026-04-24 11:09 16.98437 79.31376 20396 ft 416 kts 109°
2026-04-24 11:09 16.97607 79.34245 20850 ft 419 kts 109°
2026-04-24 11:09 16.96758 79.37180 21296 ft 423 kts 109°
2026-04-24 11:10 16.95905 79.40130 21748 ft 426 kts 109°
2026-04-24 11:10 16.95041 79.43112 22180 ft 430 kts 109°
2026-04-24 11:10 16.94174 79.46105 22616 ft 433 kts 109°
2026-04-24 11:10 16.93295 79.49134 23040 ft 437 kts 109°
2026-04-24 11:11 16.92409 79.52191 23455 ft 440 kts 110°
2026-04-24 11:11 16.91528 79.55224 23824 ft 442 kts 110°
2026-04-24 11:11 16.90631 79.58314 24191 ft 445 kts 110°
2026-04-24 11:11 16.89728 79.61419 24548 ft 448 kts 110°
2026-04-24 11:12 16.88821 79.64537 24902 ft 450 kts 110°
2026-04-24 11:12 16.87904 79.67689 25248 ft 453 kts 110°
2026-04-24 11:12 16.86983 79.70851 25579 ft 456 kts 111°
2026-04-24 11:12 16.86067 79.73995 25915 ft 459 kts 111°
2026-04-24 11:13 16.85132 79.77201 26241 ft 461 kts 111°
2026-04-24 11:13 16.84195 79.80413 26568 ft 464 kts 111°
2026-04-24 11:13 16.83250 79.83649 26883 ft 467 kts 111°
2026-04-24 11:13 16.82304 79.86885 27195 ft 469 kts 111°
2026-04-24 11:14 16.81346 79.90163 27498 ft 472 kts 111°
2026-04-24 11:14 16.80382 79.93456 27803 ft 474 kts 111°
2026-04-24 11:14 16.79418 79.96751 28098 ft 477 kts 112°
2026-04-24 11:14 16.78444 80.00075 28385 ft 479 kts 112°
2026-04-24 11:15 16.77479 80.03365 28674 ft 481 kts 112°
2026-04-24 11:15 16.76497 80.06712 28943 ft 484 kts 112°
2026-04-24 11:15 16.75509 80.10081 29217 ft 486 kts 112°
2026-04-24 11:15 16.74518 80.13455 29485 ft 488 kts 112°
2026-04-24 11:16 16.73519 80.16854 29756 ft 491 kts 112°
2026-04-24 11:16 16.72513 80.20272 29989 ft 493 kts 112°
2026-04-24 11:16 16.71506 80.23695 30257 ft 494 kts 112°
2026-04-24 11:16 16.70498 80.27121 30521 ft 496 kts 112°
2026-04-24 11:17 16.69481 80.30571 30774 ft 498 kts 112°
2026-04-24 11:17 16.68464 80.34019 31072 ft 498 kts 112°
2026-04-24 11:17 16.67444 80.37482 31425 ft 497 kts 112°
2026-04-24 11:17 16.66428 80.40925 31771 ft 496 kts 113°
2026-04-24 11:18 16.65413 80.44363 32118 ft 495 kts 113°
2026-04-24 11:18 16.64401 80.47786 32458 ft 494 kts 113°
2026-04-24 11:18 16.63399 80.51172 32788 ft 493 kts 113°
2026-04-24 11:18 16.62386 80.54592 33101 ft 493 kts 113°
2026-04-24 11:19 16.61377 80.57996 33436 ft 491 kts 113°
2026-04-24 11:19 16.60366 80.61407 33742 ft 490 kts 113°
2026-04-24 11:19 16.59358 80.64804 33989 ft 490 kts 113°
2026-04-24 11:19 16.58365 80.68149 34231 ft 489 kts 113°
2026-04-24 11:20 16.57355 80.71546 34457 ft 489 kts 113°
2026-04-24 11:20 16.56352 80.74918 34672 ft 488 kts 113°
2026-04-24 11:20 16.55343 80.78310 34890 ft 488 kts 113°
2026-04-24 11:20 16.54297 80.81674 35099 ft 485 kts 117°
2026-04-24 11:21 16.52973 80.84873 35290 ft 479 kts 123°
2026-04-24 11:21 16.51349 80.87892 35484 ft 474 kts 128°
2026-04-24 11:21 16.49664 80.90846 35678 ft 475 kts 127°
2026-04-24 11:21 16.47987 80.93811 35879 ft 474 kts 127°
2026-04-24 11:22 16.46311 80.96783 36073 ft 474 kts 127°
2026-04-24 11:22 16.44638 80.99751 36268 ft 474 kts 127°
2026-04-24 11:22 16.42966 81.02712 36456 ft 474 kts 127°
2026-04-24 11:22 16.41313 81.05639 36636 ft 474 kts 127°
2026-04-24 11:23 16.39643 81.08594 36821 ft 473 kts 127°
2026-04-24 11:23 16.37969 81.11553 36989 ft 473 kts 127°
2026-04-24 11:23 16.36313 81.14480 37163 ft 473 kts 128°
2026-04-24 11:23 16.34637 81.17439 37323 ft 473 kts 128°
2026-04-24 11:24 16.32969 81.20385 37469 ft 473 kts 128°
2026-04-24 11:24 16.31303 81.23325 37616 ft 473 kts 128°
2026-04-24 11:24 16.29625 81.26286 37756 ft 473 kts 128°
2026-04-24 11:24 16.27957 81.29226 37897 ft 473 kts 128°
2026-04-24 11:25 16.26279 81.32185 38035 ft 472 kts 128°
2026-04-24 11:25 16.24605 81.35134 38159 ft 472 kts 128°
2026-04-24 11:25 16.22932 81.38081 38278 ft 472 kts 128°
2026-04-24 11:25 16.21261 81.41024 38398 ft 472 kts 128°
2026-04-24 11:26 16.17913 81.46914 38600 ft 472 kts 128°
2026-04-24 11:26 16.14592 81.52753 38767 ft 472 kts 127°
2026-04-24 11:27 16.11248 81.58625 38786 ft 471 kts 127°
2026-04-24 11:27 16.07910 81.64484 38791 ft 471 kts 127°
2026-04-24 11:28 16.04567 81.70347 38789 ft 471 kts 127°
2026-04-24 11:28 16.04001 81.71340 38787 ft 471 kts 127°
2026-04-24 11:29 15.94757 81.87526 38790 ft 471 kts 127°
2026-04-24 11:30 15.91407 81.93384 38792 ft 471 kts 127°
2026-04-24 11:30 15.88060 81.99231 38791 ft 471 kts 127°
2026-04-24 11:31 15.84711 82.05072 38790 ft 470 kts 128°
2026-04-24 11:31 15.81227 82.10769 38789 ft 469 kts 129°
2026-04-24 11:32 15.77669 82.16506 38789 ft 469 kts 129°
2026-04-24 11:32 15.74161 82.22213 38789 ft 470 kts 129°
2026-04-24 11:33 15.70666 82.27912 38788 ft 470 kts 129°
2026-04-24 11:33 15.67147 82.33648 38793 ft 471 kts 129°
2026-04-24 11:34 15.63625 82.39383 38794 ft 471 kts 129°
2026-04-24 11:34 15.60095 82.45126 38783 ft 472 kts 129°
2026-04-24 11:35 15.56563 82.50868 38782 ft 473 kts 129°
2026-04-24 11:35 15.53127 82.56446 38793 ft 474 kts 129°
2026-04-24 11:36 15.49575 82.62210 38794 ft 475 kts 129°
2026-04-24 11:36 15.46003 82.68000 38797 ft 477 kts 129°
2026-04-24 11:37 15.42421 82.73803 38807 ft 478 kts 129°
2026-04-24 11:37 15.38832 82.79613 38812 ft 479 kts 128°
2026-04-24 11:38 15.35241 82.85423 38802 ft 478 kts 128°
2026-04-24 11:38 15.31648 82.91231 38804 ft 478 kts 128°
2026-04-24 11:39 15.28083 82.96989 38804 ft 478 kts 128°
2026-04-24 11:39 15.24494 83.02782 38803 ft 478 kts 128°
2026-04-24 11:40 15.20895 83.08584 38808 ft 478 kts 128°
2026-04-24 11:40 15.17300 83.14378 38810 ft 478 kts 128°
2026-04-24 11:41 15.13701 83.20173 38817 ft 478 kts 128°
2026-04-24 11:41 15.10098 83.25971 38817 ft 478 kts 128°
2026-04-24 11:42 15.06520 83.31724 38817 ft 478 kts 128°
2026-04-24 11:42 15.02924 83.37503 38809 ft 476 kts 128°
2026-04-24 11:43 14.99336 83.43262 38813 ft 476 kts 128°
2026-04-24 11:43 14.95752 83.49012 38810 ft 476 kts 128°
2026-04-24 11:44 14.92156 83.54776 38814 ft 475 kts 128°
2026-04-24 11:44 14.88567 83.60525 38812 ft 475 kts 128°
2026-04-24 11:45 14.84984 83.66261 38812 ft 475 kts 128°
2026-04-24 11:45 14.81426 83.71953 38808 ft 475 kts 128°
2026-04-24 11:46 14.77835 83.77692 38810 ft 474 kts 128°
2026-04-24 11:46 14.74251 83.83417 38806 ft 474 kts 128°
2026-04-24 11:47 14.70669 83.89135 38812 ft 474 kts 128°
2026-04-24 11:47 14.67082 83.94856 38810 ft 474 kts 128°
2026-04-24 11:48 14.63512 84.00545 38807 ft 474 kts 128°
2026-04-24 11:48 14.59903 84.06293 38806 ft 474 kts 128°
2026-04-24 11:49 14.56323 84.11990 38808 ft 474 kts 128°
2026-04-24 11:49 14.52756 84.17664 38813 ft 474 kts 128°
2026-04-24 11:50 14.49170 84.23364 38812 ft 474 kts 128°
2026-04-24 11:50 14.45581 84.29064 38809 ft 474 kts 128°
2026-04-24 11:51 14.41980 84.34778 38814 ft 474 kts 128°
2026-04-24 11:51 14.38386 84.40477 38817 ft 474 kts 128°
2026-04-24 11:52 14.34788 84.46180 38818 ft 474 kts 128°
2026-04-24 11:52 14.31185 84.51885 38820 ft 474 kts 128°
2026-04-24 11:53 14.27614 84.57537 38822 ft 474 kts 128°
2026-04-24 11:53 14.24013 84.63232 38825 ft 474 kts 128°
2026-04-24 11:54 14.20410 84.68927 38829 ft 474 kts 128°
2026-04-24 11:54 14.16804 84.74621 38829 ft 474 kts 128°
2026-04-24 11:55 14.13199 84.80312 38832 ft 474 kts 128°
2026-04-24 11:55 14.09598 84.85991 38829 ft 473 kts 128°
2026-04-24 11:56 14.05980 84.91693 38827 ft 473 kts 128°
2026-04-24 11:56 14.02383 84.97359 38828 ft 473 kts 128°
2026-04-24 11:57 13.98795 85.03006 38827 ft 473 kts 128°
2026-04-24 11:57 13.95194 85.08670 38829 ft 473 kts 128°
2026-04-24 11:58 13.91586 85.14341 38828 ft 472 kts 128°
2026-04-24 11:58 13.88001 85.19971 38829 ft 472 kts 128°
2026-04-24 11:59 13.84398 85.25626 38822 ft 472 kts 128°
2026-04-24 11:59 13.80792 85.31283 38822 ft 472 kts 128°
2026-04-24 12:00 13.77189 85.36932 38824 ft 472 kts 128°
2026-04-24 12:00 13.73602 85.42551 38823 ft 472 kts 128°
2026-04-24 12:01 13.69991 85.48203 38828 ft 472 kts 128°
2026-04-24 12:01 13.66379 85.53854 38829 ft 472 kts 127°
2026-04-24 12:02 13.62770 85.59497 38829 ft 473 kts 127°
2026-04-24 12:02 13.59179 85.65109 38827 ft 472 kts 127°
2026-04-24 12:03 13.55568 85.70746 38829 ft 472 kts 127°
2026-04-24 12:03 13.51949 85.76393 38827 ft 473 kts 127°